Voltar ao catálogo

TITAN 3C TRANSTAGE DEB

LostHEO
NORAD 13958·DEBRIS·🇺🇸 United States

Lançado Dec 21, 1965 de Cape Canaveral Space Force Station

Loading…

Próximas Passagens (próximas 24 horas)

TLE

ObsoletoSource: Space-Track

Época: Aug 14, 2025, 11:27 UTC

1 13958U 65108X   25226.47724523 -.00000024  00000-0  66960-3 0  9994
2 13958  27.0653 294.1007 6815587 171.5223 338.5354  2.70123485210528

Acompanhe TITAN 3C TRANSTAGE DEB em tempo real com AllMySat

Download on the App Store